Tracking 28081 objects as of 27-Sep-2023
HD Live streaming from Space Station
objects crossing your sky now

COSMOS 886 DEB

Track COSMOS 886 DEB now!
10-day predictions


NORAD ID: 13507
Int'l Code: 1976-126BK
Perigee: 1,007.5 km
Apogee: 2,439.3 km
Inclination: 65.8 °
Period: 120.8 minutes
Semi major axis: 8094 km
RCS: 0.026 m2 (small)
Launch date: December 27, 1976
Source: Commonwealth of Independent States (former USSR) (CIS)
Launch site: TYURATAM MISSILE AND SPACE COMPLEX (TTMTR)

Note: This is SATELLITE DEBRIS
Your satellite tracking list
Your tracking list is empty




NASA's NSSDC Master Catalog

Two Line Element Set (TLE):
1 13507U 76126BK  23269.74918303 -.00000042  00000-0  36619-4 0  9991
2 13507  65.7575 163.6744 0884439 247.0347 138.6063 11.92132339842248
Source of the keplerian elements: AFSPC